Location: Altoona
(40.5167°N, 78.4000°W)
Time: 12:06:20
(UTC-04:00)

Daily predictions for brighter satellites

Satellite Brightness Start Highest point End
(mag) Time Altitude Azimuth Time Altitude Azimuth Time Altitude Azimuth
KORONAS-FOTON 4.3 21:17:35 10° SSE 21:21:08 40° E 21:24:42 10° NNE
Envisat 3.3 21:19:40 10° S 21:24:43 74° WSW 21:29:49 10° NNW
Cosmos 1939 Rocket 3.0 21:22:58 10° SSE 21:26:59 85° WSW 21:31:06 10° NNW
Spot 1 4.0 21:23:48 10° SSE 21:27:54 78° ENE 21:32:13 10° N
Cosmos 1763 Rocket 4.5 21:28:03 10° N 21:32:34 31° ENE 21:37:00 10° SE
Meteor 1-29 2.9 21:29:43 10° NNE 21:33:10 71° ESE 21:36:37 10° S
YAOGAN 6 2.6 21:29:45 10° SSE 21:33:23 73° ENE 21:37:06 10° N
Cosmos 220 Rocket 4.4 21:32:27 10° S 21:36:37 42° ESE 21:40:45 10° NNE
Cosmos 1626 4.2 21:42:47 10° ESE 21:44:05 12° E 21:45:27 10° ENE
CZ-4B DEB 2.9 21:41:21 10° S 21:44:17 67° WSW 21:47:15 10° NNW
Cosmos 1726 2.4 21:43:31 10° N 21:47:05 48° E 21:50:10 13° SSE
Cosmos 2227 4.4 21:42:55 10° SSW 21:48:40 81° WNW 21:54:24 10° NNE
Cosmos 2228 Rocket 3.9 21:44:34 10° N 21:48:51 38° ENE 21:52:22 14° SE
Resurs 01 Rocket 4.2 21:46:32 10° SW 21:49:34 18° W 21:52:36 10° NW
Cosmos 1459 Rocket 4.1 21:44:50 10° N 21:51:08 82° W 21:57:17 10° S
USA 234 3.9 21:45:53 10° ENE 21:51:30 30° SE 21:57:06 10° S
Cosmos 1076 Rocket 4.3 21:50:05 10° SSW 21:54:21 54° W 21:58:38 10° N
ATLAS 5 CENTAUR R/B 4.5 21:54:51 10° W 21:58:44 24° NW 22:02:54 10° NNE
Cosmos 2263 Rocket 2.5 21:55:07 10° S 22:00:20 44° ESE 22:05:37 10° NE
Cosmos 2151 3.9 21:59:38 16° SE 22:02:17 30° E 22:06:04 10° NNE
Cosmos 371 Rocket 3.3 22:00:19 10° NNW 22:05:10 77° ENE 22:08:54 17° SSE
SPOT 1/Viking Rocket 4.2 22:02:02 16° SE 22:05:41 40° ENE 22:10:29 10° N
ERS-1 Rocket 3.0 22:01:53 10° S 22:06:50 81° WSW 22:11:54 10° NNW
Cosmos 468 Rocket 4.2 22:03:18 10° NNW 22:08:25 67° WSW 22:13:00 13° S
Cosmos 1300 2.6 22:05:08 10° N 22:08:59 71° E 22:11:40 18° SSE
Cosmos 1408 Rocket 4.2 22:07:21 10° SSW 22:11:34 56° W 22:15:52 10° N
Cosmos 2123 Rocket 3.9 22:07:40 10° S 22:13:49 81° E 22:20:04 10° N
SL-08 RB Rocket 3.7 22:19:42 21° SSE 22:22:43 71° ENE 22:27:21 10° N
Cosmos 540 Rocket 4.5 22:18:40 10° N 22:23:19 33° ENE 22:26:04 20° ESE
MetOp-A 4.3 22:18:47 14° S 22:23:27 72° WSW 22:28:49 10° NNW
GPS 2-05 Rocket1 3.3 22:25:04 10° WSW 22:27:52 32° S 22:27:52 32° S
Cosmos 1503 Rocket 4.2 22:24:11 16° S 22:28:05 50° ESE 22:33:06 10° NNE
SL-14 R/B 3.8 22:27:33 10° SSW 22:31:26 58° W 22:35:19 10° N
ARGOS 3.2 22:27:52 18° S 22:32:00 78° WSW 22:37:27 10° NNW
Cosmos 1844 Rocket 4.2 22:32:40 16° ESE 22:32:58 17° E 22:36:20 10° ENE
Cosmos 1500 Rocket 3.5 22:29:52 17° S 22:33:19 85° E 22:37:47 10° N
Abrixas 3.7 22:32:41 10° W 22:35:14 38° NNW 22:37:49 10° NE
Tiangong 1 0.6 22:33:25 10° WNW 22:36:12 68° SSW 22:36:29 61° SSE
ERBS 3.5 22:33:49 10° WNW 22:36:52 31° SW 22:37:55 25° SSW
Cosmos 1725 Rocket 4.2 22:30:40 10° N 22:36:53 73° W 22:41:57 16° S
SPOT 5 3.0 22:33:35 21° S 22:36:56 76° WSW 22:42:07 10° NNW
Lacrosse 5 3.1 22:32:33 10° WNW 22:37:01 32° SW 22:39:52 19° S
Cosmos 2285 Rocket 4.3 22:31:04 10° N 22:37:17 54° ENE 22:40:56 25° SE
Abrixas rocket 2.9 22:35:42 10° WNW 22:38:45 38° SW 22:39:18 35° SSW
Cosmos 1455 3.0 22:37:50 10° N 22:41:24 35° ENE 22:42:15 31° ESE
Landsat 7 4.0 22:39:30 29° SE 22:41:46 58° ENE 22:46:28 10° N
CARTOSAT-1 4.2 22:43:12 30° ESE 22:44:43 41° ENE 22:48:47 10° N
EO 1 Delta rocket 3.9 22:42:59 23° S 22:45:51 74° W 22:50:33 10° NNW
H-2A R/B 2.1 22:46:14 25° S 22:49:25 83° WSW 22:54:54 10° NNW
Cosmos 1943 3.5 22:44:21 10° NNW 22:49:57 63° WSW 22:53:12 25° S
SWAS 4.4 22:48:23 30° S 22:50:18 60° ESE 22:54:35 10° NNE
Cosmos 1151 Rocket 3.1 22:45:57 10° N 22:50:20 75° W 22:52:27 30° S
Cosmos 1805 Rocket 4.1 22:52:11 36° ESE 22:53:02 40° E 22:57:05 10° NNE
Cosmos 1633 Rocket 4.4 22:55:52 23° E 22:56:02 23° E 22:59:30 10° NE
Cosmos 2058 3.1 22:53:41 25° SSW 22:56:06 72° W 23:00:19 10° N
Terra 2.0 22:54:55 35° SE 22:56:42 58° ENE 23:01:22 10° N
Cosmos 304 Rocket 3.7 22:54:24 10° NNW 22:59:13 82° ENE 23:00:58 39° SSE
Cosmos 1464 Rocket 4.4 22:56:56 10° N 23:02:55 49° ENE 23:05:27 32° SE
H-2A R/B 2.4 23:04:24 41° ESE 23:05:25 51° ENE 23:09:31 10° N
Delta 2 Rocket 4.2 23:00:00 10° WSW 23:05:33 53° S 23:07:43 35° SE
Cosmos 1354 Rocket 4.5 23:09:52 12° SSW 23:14:40 60° WNW 23:19:52 10° NNE
CZ-4 R/B 4.0 23:10:58 10° NNE 23:15:40 52° E 23:16:30 46° SE
Cosmos 1626 3.3 23:17:25 25° SW 23:19:01 39° WNW 23:22:33 10° N
Cosmos 1869 3.5 23:15:25 10° N 23:19:15 50° E 23:19:26 50° E
CZ-4C R/B 2.0 23:17:30 35° S 23:19:41 65° ESE 23:25:28 10° NE
Cosmos 1400 Rocket 4.0 23:33:00 31° ENE 23:33:00 31° ENE 23:36:11 10° NNE
USA 234 3.4 23:28:18 10° NE 23:34:50 74° NW 23:41:21 10° WSW
Cosmos 2278 Rocket 3.6 23:36:33 22° E 23:36:33 22° E 23:40:22 10° NE
CZ-4C R/B 3.8 23:37:04 51° E 23:37:28 53° ENE 23:41:47 10° N
Spot 4 3.8 23:36:52 57° SE 23:37:50 77° ENE 23:42:42 10° N
Cosmos 783 Rocket 4.4 23:35:05 10° NNW 23:40:25 84° WSW 23:41:37 55° S
CZ-2C R/B 4.5 23:38:48 25° E 23:40:35 30° ENE 23:45:24 10° N
Tsikada Rocket 4.2 23:39:07 42° SE 23:40:53 55° E 23:47:02 10° NNE
Sich 1 2.9 23:43:19 71° SSW 23:43:43 82° W 23:48:01 10° N
Cosmos 2263 Rocket 4.1 23:39:45 10° WSW 23:44:25 27° NW 23:49:09 10° N
Cosmos 1844 3.8 23:43:57 49° SE 23:44:35 52° ESE 23:50:00 10° NNE
SL-19 R/B 4.5 23:40:01 10° N 23:45:24 67° WNW 23:48:07 31° SW
Cosmos 2242 Rocket 3.9 23:41:32 10° N 23:46:03 53° E 23:46:18 53° E
